• In Schweiz
  • Länderverzeichnis
  • Für 7 Tage
  • Wassertemperatur
  • Satellitenkarten
  • Wetterkarte
  • Widgets
  • user-avatar
    Anmelden

    Stündliche Wetter Sergipe

    Heute, 14 November, Mittwoch

    Zeit Temperatur Niederschläge Wind Luftdruck Luftfeuchtigkeit
    00:00 +24°C° 0 mm 2 m/S 743 mmHg 92%
    01:00 +23°C° 0 mm 2 m/S 743 mmHg 93%
    02:00 +23°C° 0 mm 2 m/S 743 mmHg 93%
    03:00 +23°C° 0 mm 2 m/S 743 mmHg 94%
    04:00 +23°C° 0 mm 2 m/S 743 mmHg 94%
    05:00 +24°C° 0 mm 2 m/S 743 mmHg 92%
    06:00 +24°C° 0 mm 2 m/S 743 mmHg 89%
    07:00 +25°C° 0 mm 2 m/S 743 mmHg 87%
    08:00 +26°C° 0 mm 3 m/S 744 mmHg 78%
    09:00 +28°C° 0 mm 3 m/S 744 mmHg 69%
    10:00 +30°C° 0 mm 4 m/S 744 mmHg 60%
    11:00 +32°C° 0 mm 4 m/S 744 mmHg 56%
    12:00 +33°C° 0 mm 4 m/S 743 mmHg 53%
    13:00 +34°C° 0 mm 4 m/S 743 mmHg 49%
    14:00 +34°C° 0 mm 4 m/S 742 mmHg 49%
    15:00 +34°C° 0 mm 5 m/S 741 mmHg 48%
    16:00 +34°C° 0 mm 5 m/S 740 mmHg 48%
    17:00 +32°C° 0 mm 5 m/S 740 mmHg 55%
    18:00 +29°C° 0 mm 4 m/S 741 mmHg 62%
    19:00 +27°C° 0 mm 4 m/S 741 mmHg 69%
    20:00 +26°C° 0 mm 4 m/S 741 mmHg 75%
    21:00 +26°C° 0 mm 3 m/S 742 mmHg 80%
    22:00 +25°C° 0 mm 3 m/S 743 mmHg 85%
    23:00 +24°C° 0 mm 3 m/S 743 mmHg 87%

    Morgen, 15 November, Donnerstag

    Zeit Temperatur Niederschläge Wind Luftdruck Luftfeuchtigkeit
    00:00 +24°C° 0 mm 2 m/S 742 mmHg 89%
    01:00 +24°C° 0 mm 2 m/S 742 mmHg 91%
    02:00 +24°C° 0 mm 2 m/S 742 mmHg 92%
    03:00 +23°C° 0 mm 2 m/S 742 mmHg 92%
    04:00 +23°C° 0 mm 2 m/S 741 mmHg 93%
    05:00 +24°C° 0 mm 2 m/S 742 mmHg 91%
    06:00 +24°C° 0 mm 2 m/S 742 mmHg 89%
    07:00 +25°C° 0 mm 2 m/S 742 mmHg 86%
    08:00 +27°C° 0 mm 3 m/S 743 mmHg 76%
    09:00 +29°C° 0 mm 4 m/S 743 mmHg 66%
    10:00 +32°C° 0 mm 5 m/S 744 mmHg 57%
    11:00 +33°C° 0 mm 5 m/S 743 mmHg 54%
    12:00 +33°C° 0 mm 5 m/S 743 mmHg 51%
    13:00 +34°C° 0 mm 5 m/S 742 mmHg 49%
    14:00 +34°C° 0 mm 5 m/S 741 mmHg 49%
    15:00 +34°C° 0 mm 6 m/S 741 mmHg 50%
    16:00 +34°C° 0 mm 6 m/S 740 mmHg 50%
    17:00 +32°C° 0 mm 5 m/S 740 mmHg 56%
    18:00 +29°C° 0 mm 5 m/S 740 mmHg 62%
    19:00 +28°C° 0 mm 4 m/S 741 mmHg 67%
    20:00 +27°C° 0 mm 4 m/S 741 mmHg 72%
    21:00 +26°C° 0 mm 4 m/S 742 mmHg 77%
    22:00 +25°C° 0 mm 4 m/S 743 mmHg 82%
    23:00 +25°C° 0 mm 4 m/S 743 mmHg 84%

    übermorgen, 16 November, Freitag

    Zeit Temperatur Niederschläge Wind Luftdruck Luftfeuchtigkeit
    00:00 +25°C° 0 mm 3 m/S 743 mmHg 86%
    01:00 +24°C° 0 mm 3 m/S 742 mmHg 89%
    02:00 +24°C° 0 mm 3 m/S 742 mmHg 90%
    03:00 +24°C° 0 mm 3 m/S 742 mmHg 91%
    04:00 +23°C° 0 mm 2 m/S 742 mmHg 92%
    05:00 +24°C° 0 mm 3 m/S 742 mmHg 90%
    06:00 +24°C° 0 mm 3 m/S 743 mmHg 88%
    07:00 +25°C° 0 mm 3 m/S 743 mmHg 86%
    08:00 +27°C° 0 mm 4 m/S 744 mmHg 77%
    09:00 +29°C° 0 mm 4 m/S 744 mmHg 67%
    10:00 +32°C° 0 mm 5 m/S 744 mmHg 58%
    11:00 +33°C° 0 mm 5 m/S 744 mmHg 56%
    12:00 +33°C° 0 mm 5 m/S 743 mmHg 53%
    13:00 +34°C° 0 mm 6 m/S 743 mmHg 51%
    14:00 +34°C° 0 mm 6 m/S 742 mmHg 52%
    15:00 +33°C° 0 mm 6 m/S 742 mmHg 53%
    16:00 +33°C° 0 mm 6 m/S 741 mmHg 55%
    17:00 +32°C° 0 mm 6 m/S 741 mmHg 61%
    18:00 +29°C° 0 mm 5 m/S 742 mmHg 68%
    19:00 +27°C° 0 mm 5 m/S 742 mmHg 74%
    20:00 +27°C° 0 mm 5 m/S 743 mmHg 78%
    21:00 +26°C° 0 mm 4 m/S 743 mmHg 82%
    22:00 +25°C° 0 mm 4 m/S 744 mmHg 85%
    23:00 +25°C° 0 mm 3 m/S 744 mmHg 87%

    17 November, Samstag

    Zeit Temperatur Niederschläge Wind Luftdruck Luftfeuchtigkeit
    00:00 +24°C° 0 mm 3 m/S 744 mmHg 89%
    01:00 +24°C° 0 mm 3 m/S 743 mmHg 91%
    02:00 +24°C° 0 mm 3 m/S 743 mmHg 92%
    03:00 +24°C° 0 mm 2 m/S 743 mmHg 93%
    04:00 +23°C° 0 mm 2 m/S 743 mmHg 94%
    05:00 +24°C° 0 mm 3 m/S 743 mmHg 92%
    06:00 +24°C° 0 mm 3 m/S 743 mmHg 89%
    07:00 +25°C° 0 mm 4 m/S 744 mmHg 87%
    08:00 +27°C° 0 mm 4 m/S 744 mmHg 76%
    09:00 +29°C° 0 mm 5 m/S 745 mmHg 66%
    10:00 +32°C° 0 mm 6 m/S 745 mmHg 55%
    11:00 +33°C° 0 mm 6 m/S 744 mmHg 52%
    12:00 +34°C° 0 mm 6 m/S 744 mmHg 50%
    13:00 +35°C° 0 mm 6 m/S 743 mmHg 47%
    14:00 +34°C° 0 mm 6 m/S 743 mmHg 49%
    15:00 +33°C° 0 mm 6 m/S 742 mmHg 52%
    16:00 +32°C° 0 mm 6 m/S 742 mmHg 55%
    17:00 +30°C° 0 mm 6 m/S 742 mmHg 61%
    18:00 +28°C° 0 mm 5 m/S 743 mmHg 66%
    19:00 +27°C° 0 mm 5 m/S 743 mmHg 72%
    20:00 +26°C° 0 mm 4 m/S 744 mmHg 77%
    21:00 +26°C° 0 mm 4 m/S 744 mmHg 82%
    22:00 +25°C° 0 mm 4 m/S 744 mmHg 87%
    23:00 +25°C° 0 mm 3 m/S 744 mmHg 89%

    18 November, Sonntag

    Zeit Temperatur Niederschläge Wind Luftdruck Luftfeuchtigkeit
    00:00 +24°C° 0 mm 3 m/S 744 mmHg 90%
    01:00 +24°C° 0 mm 3 m/S 743 mmHg 91%
    02:00 +24°C° 0 mm 3 m/S 743 mmHg 92%
    03:00 +24°C° 0 mm 2 m/S 743 mmHg 92%
    04:00 +24°C° 0 mm 2 m/S 743 mmHg 92%
    05:00 +24°C° 0 mm 2 m/S 743 mmHg 90%
    06:00 +25°C° 0 mm 3 m/S 743 mmHg 88%
    07:00 +25°C° 0 mm 3 m/S 744 mmHg 85%
    08:00 +27°C° 0.1 mm 4 m/S 744 mmHg 76%
    09:00 +29°C° 0.1 mm 5 m/S 744 mmHg 66%
    10:00 +32°C° 0.1 mm 6 m/S 744 mmHg 56%
    11:00 +32°C° 0.1 mm 6 m/S 744 mmHg 55%
    12:00 +33°C° 0.1 mm 6 m/S 743 mmHg 53%
    13:00 +33°C° 0.1 mm 6 m/S 743 mmHg 52%
    14:00 +33°C° 0 mm 6 m/S 742 mmHg 52%
    15:00 +33°C° 0 mm 6 m/S 742 mmHg 53%
    16:00 +33°C° 0 mm 6 m/S 742 mmHg 53%
    17:00 +30°C° 0 mm 5 m/S 742 mmHg 60%
    18:00 +28°C° 0 mm 5 m/S 742 mmHg 67%
    19:00 +27°C° 0 mm 4 m/S 743 mmHg 74%
    20:00 +26°C° 0 mm 4 m/S 743 mmHg 79%
    21:00 +25°C° 0 mm 3 m/S 744 mmHg 84%
    22:00 +25°C° 0 mm 3 m/S 744 mmHg 89%
    23:00 +24°C° 0 mm 2 m/S 744 mmHg 90%

    19 November, Montag

    Zeit Temperatur Niederschläge Wind Luftdruck Luftfeuchtigkeit
    00:00 +24°C° 0 mm 2 m/S 743 mmHg 91%
    01:00 +24°C° 0 mm 2 m/S 743 mmHg 92%
    02:00 +24°C° 0 mm 2 m/S 743 mmHg 92%
    03:00 +24°C° 0 mm 2 m/S 743 mmHg 92%
    04:00 +23°C° 0 mm 2 m/S 742 mmHg 92%
    05:00 +24°C° 0 mm 2 m/S 743 mmHg 90%
    06:00 +25°C° 0 mm 2 m/S 743 mmHg 87%
    07:00 +25°C° 0 mm 2 m/S 744 mmHg 85%
    08:00 +27°C° 0 mm 3 m/S 744 mmHg 75%
    09:00 +29°C° 0 mm 4 m/S 744 mmHg 65%
    10:00 +32°C° 0 mm 5 m/S 745 mmHg 56%
    11:00 +32°C° 0 mm 5 m/S 744 mmHg 54%
    12:00 +33°C° 0 mm 5 m/S 744 mmHg 52%
    13:00 +33°C° 0 mm 5 m/S 743 mmHg 50%
    14:00 +33°C° 0 mm 5 m/S 743 mmHg 50%
    15:00 +33°C° 0 mm 5 m/S 742 mmHg 50%
    16:00 +33°C° 0 mm 5 m/S 741 mmHg 51%
    17:00 +32°C° 0 mm 5 m/S 742 mmHg 58%
    18:00 +29°C° 0 mm 5 m/S 742 mmHg 65%
    19:00 +27°C° 0 mm 5 m/S 742 mmHg 73%
    20:00 +26°C° 0 mm 4 m/S 742 mmHg 77%
    21:00 +26°C° 0 mm 3 m/S 743 mmHg 81%
    22:00 +25°C° 0 mm 3 m/S 743 mmHg 85%
    23:00 +24°C° 0 mm 3 m/S 743 mmHg 87%
    Mehr zeigen